Weather History for Gulkana, AK

Change the Weather History Date:

Friday, January 4, 2013

  Actual Average Record
Temperature  
Mean Temperature 13 °F -  
Max Temperature 18 °F 0 °F 41 °F (2005)
Min Temperature 8 °F -15 °F -53 °F (1975)
Degree Days  
Heating Degree Days 52    
Moisture  
Dew Point 6 °F    
Average Humidity 74    
Maximum Humidity 83    
Minimum Humidity 59    
Precipitation  
Precipitation 0.00 in - - ()
Snow  
Snow 0.00 in - - ()
Snow Depth 9.00 in    
Sea Level Pressure  
Sea Level Pressure 29.88 in    
Wind  
Wind Speed 5 mph (NNW)    
Max Wind Speed 8 mph    
Max Gust Speed -    
Visibility 10 miles    
Events      
Averages and records for this station are not official NWS values.
T = Trace of Precipitation, MM = Missing Value Source: NWS Daily Summary

Daily Weather History Graph

Daily Weather History Graph

Search for Another Location

Airport:

Trip Planner

Search our weather history database for the weather conditions in past years. The results will help you decide how hot, cold, wet, or windy it might be!

Date:

Astronomy

Jan. 04, 2013 Rise Set
Actual Time 10:03 AM AKST 3:31 PM AKST
Civil Twilight 8:59 AM AKST 4:34 PM AKST
Nautical Twilight 7:58 AM AKST 5:35 PM AKST
Astronomical Twilight 7:03 AM AKST 6:30 PM AKST
Moon 12:39 AM AKST (1/4) 11:18 AM AKST (1/4)
Length of Visible Light 7h 35m
Length of Day
5h 27m
Waning Gibbous, 53% of the Moon is Illuminated
Jan 4
Waning Gibbous
Jan 4
Last Quarter
Jan 11
New
Jan 18
First Quarter
Jan 26
Full

Hourly Weather History & Observations

Time (AKST) Temp. Windchill Dew Point Humidity Pressure Visibility Wind Dir Wind Speed Gust Speed Precip Events Conditions
12:53 AM 10.9 °F 2.9 °F 5.0 °F 77% 29.75 in 10.0 mi North 4.6 mph - N/A   Clear
1:53 AM 14.0 °F 6.5 °F 6.1 °F 71% 29.76 in 10.0 mi NNE 4.6 mph - N/A   Scattered Clouds
3:53 AM 16.0 °F - 8.1 °F 71% 29.78 in 10.0 mi Calm Calm - N/A   Overcast
4:53 AM 15.1 °F 9.4 °F 8.1 °F 74% 29.79 in 10.0 mi NW 3.5 mph - N/A   Overcast
5:53 AM 12.9 °F 6.9 °F 7.0 °F 77% 29.80 in 10.0 mi NNW 3.5 mph - N/A   Mostly Cloudy
6:00 AM 12.9 °F 3.8 °F 7.0 °F 77% 29.67 in 10.0 mi North 5.8 mph - N/A   Scattered Clouds
6:53 AM 12.9 °F 1.6 °F 6.1 °F 74% 29.82 in 10.0 mi North 8.1 mph - N/A   Scattered Clouds
7:53 AM 10.9 °F -0.8 °F 3.9 °F 73% 29.83 in 10.0 mi North 8.1 mph - N/A   Partly Cloudy
8:53 AM 8.1 °F 1.4 °F 3.9 °F 83% 29.86 in 10.0 mi North 3.5 mph - N/A   Scattered Clouds
9:53 AM 10.9 °F 1.4 °F 5.0 °F 77% 29.87 in 10.0 mi North 5.8 mph - N/A   Mostly Cloudy
10:53 AM 15.1 °F 6.4 °F 7.0 °F 70% 29.90 in 10.0 mi North 5.8 mph - N/A   Mostly Cloudy
11:53 AM 16.0 °F 10.4 °F 7.0 °F 68% 29.91 in 10.0 mi NNW 3.5 mph - N/A   Scattered Clouds
12:53 PM 16.0 °F 7.4 °F 7.0 °F 68% 29.93 in 10.0 mi NNW 5.8 mph - N/A   Scattered Clouds
1:53 PM 16.0 °F 7.4 °F 7.0 °F 68% 29.95 in 10.0 mi North 5.8 mph - N/A   Scattered Clouds
2:53 PM 12.0 °F 0.5 °F 5.0 °F 73% 29.96 in 10.0 mi North 8.1 mph - N/A   Mostly Cloudy
3:53 PM 12.0 °F 4.1 °F 6.1 °F 77% 29.98 in 10.0 mi North 4.6 mph - N/A   Mostly Cloudy
4:53 PM 10.0 °F 1.8 °F 3.9 °F 76% 29.98 in 10.0 mi NNW 4.6 mph - N/A   Mostly Cloudy
5:53 PM 10.9 °F 2.9 °F 6.1 °F 81% 29.99 in 10.0 mi WNW 4.6 mph - N/A   Mostly Cloudy
6:53 PM 10.9 °F - 6.1 °F 81% 29.98 in 10.0 mi Calm Calm - N/A   Mostly Cloudy
7:53 PM 12.0 °F 4.1 °F 6.1 °F 77% 29.97 in 10.0 mi NNW 4.6 mph - N/A   Overcast
8:53 PM 12.9 °F 6.9 °F 7.0 °F 77% 29.96 in 10.0 mi WNW 3.5 mph - N/A   Overcast
9:26 PM 12.9 °F 5.2 °F 7.0 °F 77% 29.81 in 10.0 mi NW 4.6 mph - N/A   Overcast
9:53 PM 14.0 °F 8.2 °F 8.1 °F 77% 29.95 in 10.0 mi North 3.5 mph - N/A   Overcast
10:53 PM 12.0 °F - 7.0 °F 80% 29.94 in 10.0 mi Calm Calm - N/A   Mostly Cloudy
11:53 PM 10.9 °F - 6.1 °F 81% 29.93 in 10.0 mi Calm Calm - N/A   Clear